Location: Plum
(40.5000°N, 79.7500°W)
Time: 01:47:21
(UTC-04:00)

MOZ.5/SAFIR/RUBIN 5/SL-8 - Visible Passes

Search period start: 27 June 2016 00:00
Search period end: 07 July 2016 00:00
Orbit: 679 x 706 km, 97.9° (Epoch: 26 June)

Date Brightness Start Highest point End Pass type
(mag) Time Alt. Az. Time Alt. Az. Time Alt. Az.
27 Jun 4.8 04:37:20 10° SSE 04:41:56 50° ENE 04:46:35 10° N visible
28 Jun 6.7 03:42:03 10° E 03:44:39 15° ENE 03:47:13 10° NNE visible
28 Jun 3.9 05:16:56 10° S 05:21:40 63° W 05:26:25 10° NNW visible
29 Jun 5.6 04:19:45 10° SE 04:24:01 34° ENE 04:28:19 10° N visible
30 Jun 3.9 04:58:52 10° SSE 05:03:39 85° ENE 05:08:27 10° NNW visible
01 Jul 6.2 04:02:25 10° ESE 04:06:09 23° ENE 04:09:53 10° NNE visible
02 Jul 4.6 04:41:01 10° SSE 04:45:40 56° ENE 04:50:21 10° N visible
03 Jul 6.6 03:45:27 10° E 03:48:19 16° ENE 03:51:12 10° NNE visible
03 Jul 3.9 05:20:44 10° S 05:25:25 57° W 05:30:08 10° NNW visible
04 Jul 5.4 04:23:22 10° SE 04:27:44 37° ENE 04:32:07 10° N visible
05 Jul 7.0 03:29:25 10° ENE 03:30:33 11° ENE 03:31:40 10° NE visible
05 Jul 3.8 05:02:36 10° SSE 05:07:23 87° WSW 05:12:11 10° NNW visible
06 Jul 6.1 04:05:58 10° ESE 04:09:51 25° ENE 04:13:45 10° NNE visible
